Zurück zum Katalog

FALCON HEAVY R/B

AktivGEO
NORAD 55265·ROCKET BODY·🇺🇸 United States

Gestartet Jan 15, 2023 von Cape Canaveral Space Force Station

Loading…

TLE

AktuellSource: Space-Track

Epoche: Sep 14, 2026, 15:12 UTC

1 55265U 23008C   26257.63402401 -.00000094  00000-0  00000-0 0  9992
2 55265   3.0916  74.7055 0054721  81.2117 279.8209  1.03134212  8812

Verfolge FALCON HEAVY R/B in Echtzeit mit AllMySat

Download on the App Store